• In Czech Republic
  • List of Countries
  • For 7 days
  • Water Temperature
  • Satellite Maps
  • Weather Map
  • Weather Widgets
  • user-avatar
    Login

    Hourly Weather Kisumu

    Today, 22 October, Sunday

    Time Temperature Precipitation Wind Pressure Humidity
    00:00 +23°C° 0.6 mm 1 mps 665 mmHg 85%
    01:00 +23°C° 0.6 mm 1 mps 665 mmHg 85%
    02:00 +22°C° 0 mm 1 mps 665 mmHg 86%
    03:00 +22°C° 0.1 mm 1 mps 665 mmHg 85%
    04:00 +22°C° 0.1 mm 1 mps 665 mmHg 85%
    05:00 +21°C° 0.1 mm 1 mps 665 mmHg 85%
    06:00 +23°C° 0 mm 1 mps 665 mmHg 78%
    07:00 +25°C° 0 mm 1 mps 666 mmHg 71%
    08:00 +26°C° 0 mm 1 mps 667 mmHg 65%
    09:00 +28°C° 0.3 mm 1 mps 667 mmHg 59%
    10:00 +30°C° 0.3 mm 1 mps 667 mmHg 53%
    11:00 +32°C° 0.3 mm 1 mps 667 mmHg 47%
    12:00 +31°C° 0.5 mm 1 mps 666 mmHg 50%
    13:00 +30°C° 0.5 mm 1 mps 665 mmHg 52%
    14:00 +30°C° 0.5 mm 2 mps 664 mmHg 54%
    15:00 +29°C° 0.3 mm 2 mps 664 mmHg 59%
    16:00 +27°C° 0.3 mm 1 mps 664 mmHg 64%
    17:00 +26°C° 0.3 mm 1 mps 663 mmHg 69%
    18:00 +26°C° 0.3 mm 1 mps 664 mmHg 72%
    19:00 +25°C° 0.3 mm 1 mps 664 mmHg 74%
    20:00 +24°C° 0.3 mm 1 mps 665 mmHg 77%
    21:00 +24°C° 0.2 mm 1 mps 665 mmHg 78%
    22:00 +23°C° 0.2 mm 1 mps 665 mmHg 79%
    23:00 +22°C° 0.2 mm 1 mps 665 mmHg 81%

    Tomorrow, 23 October, Monday

    Time Temperature Precipitation Wind Pressure Humidity
    00:00 +22°C° 0.1 mm 1 mps 664 mmHg 80%
    01:00 +20°C° 0.1 mm 2 mps 664 mmHg 80%
    02:00 +20°C° 0.1 mm 2 mps 663 mmHg 79%
    03:00 +19°C° 0 mm 2 mps 663 mmHg 79%
    04:00 +19°C° 0 mm 2 mps 663 mmHg 78%
    05:00 +19°C° 0 mm 2 mps 663 mmHg 78%
    06:00 +22°C° 0 mm 1 mps 664 mmHg 71%
    07:00 +24°C° 0 mm 1 mps 665 mmHg 65%
    08:00 +26°C° 0 mm 1 mps 666 mmHg 58%
    09:00 +28°C° 0 mm 1 mps 666 mmHg 53%
    10:00 +31°C° 0 mm 1 mps 666 mmHg 47%
    11:00 +33°C° 0 mm 1 mps 667 mmHg 42%
    12:00 +32°C° 0.1 mm 1 mps 666 mmHg 44%
    13:00 +31°C° 0.1 mm 2 mps 665 mmHg 46%
    14:00 +31°C° 0.1 mm 2 mps 664 mmHg 48%
    15:00 +29°C° 0.3 mm 2 mps 663 mmHg 55%
    16:00 +28°C° 0.3 mm 2 mps 663 mmHg 62%
    17:00 +26°C° 0.3 mm 2 mps 663 mmHg 68%
    18:00 +26°C° 0.3 mm 2 mps 663 mmHg 71%
    19:00 +25°C° 0.3 mm 1 mps 664 mmHg 74%
    20:00 +24°C° 0.3 mm 1 mps 664 mmHg 76%
    21:00 +23°C° 0.1 mm 1 mps 664 mmHg 77%
    22:00 +23°C° 0.1 mm 1 mps 664 mmHg 78%
    23:00 +22°C° 0.1 mm 1 mps 664 mmHg 79%

    Day after tomorrow, 24 October, Tuesday

    Time Temperature Precipitation Wind Pressure Humidity
    00:00 +22°C° 0 mm 1 mps 664 mmHg 80%
    01:00 +21°C° 0 mm 2 mps 663 mmHg 81%
    02:00 +20°C° 0 mm 2 mps 663 mmHg 82%
    03:00 +20°C° 0 mm 2 mps 663 mmHg 81%
    04:00 +20°C° 0 mm 2 mps 663 mmHg 81%
    05:00 +19°C° 0 mm 2 mps 663 mmHg 80%
    06:00 +23°C° 0 mm 2 mps 664 mmHg 73%
    07:00 +25°C° 0 mm 2 mps 665 mmHg 65%
    08:00 +27°C° 0 mm 1 mps 666 mmHg 58%
    09:00 +29°C° 0 mm 1 mps 666 mmHg 53%
    10:00 +31°C° 0 mm 1 mps 666 mmHg 47%
    11:00 +33°C° 0 mm 1 mps 666 mmHg 42%
    12:00 +32°C° 0 mm 1 mps 665 mmHg 46%
    13:00 +31°C° 0 mm 1 mps 664 mmHg 49%
    14:00 +31°C° 0 mm 2 mps 663 mmHg 53%
    15:00 +29°C° 0.6 mm 1 mps 663 mmHg 60%
    16:00 +27°C° 0.6 mm 1 mps 663 mmHg 67%
    17:00 +26°C° 0.6 mm 1 mps 663 mmHg 75%
    18:00 +25°C° 1 mm 1 mps 663 mmHg 77%
    19:00 +24°C° 1 mm 1 mps 664 mmHg 80%
    20:00 +23°C° 1 mm 1 mps 665 mmHg 83%
    21:00 +23°C° 0.9 mm 1 mps 665 mmHg 83%
    22:00 +23°C° 0.9 mm 1 mps 665 mmHg 84%
    23:00 +21°C° 0.9 mm 2 mps 665 mmHg 84%

    25 October, Wednesday

    Time Temperature Precipitation Wind Pressure Humidity
    00:00 +21°C° 0.1 mm 2 mps 664 mmHg 84%
    01:00 +21°C° 0.1 mm 2 mps 664 mmHg 84%
    02:00 +20°C° 0.1 mm 2 mps 663 mmHg 84%
    03:00 +20°C° 0 mm 2 mps 663 mmHg 85%
    04:00 +20°C° 0 mm 2 mps 663 mmHg 85%
    05:00 +20°C° 0 mm 2 mps 664 mmHg 86%
    06:00 +23°C° 0 mm 1 mps 664 mmHg 78%
    07:00 +25°C° 0 mm 1 mps 665 mmHg 70%
    08:00 +27°C° 0 mm 1 mps 666 mmHg 63%
    09:00 +29°C° 0.6 mm 1 mps 666 mmHg 60%
    10:00 +30°C° 0.6 mm 1 mps 666 mmHg 56%
    11:00 +31°C° 0.6 mm 1 mps 666 mmHg 53%
    12:00 +31°C° 0.9 mm 1 mps 665 mmHg 54%
    13:00 +31°C° 0.9 mm 1 mps 664 mmHg 54%
    14:00 +31°C° 0.9 mm 2 mps 663 mmHg 55%
    15:00 +30°C° 1 mm 2 mps 663 mmHg 61%
    16:00 +28°C° 1 mm 2 mps 663 mmHg 68%
    17:00 +26°C° 1 mm 2 mps 663 mmHg 75%
    18:00 +25°C° 0.3 mm 2 mps 664 mmHg 78%
    19:00 +24°C° 0.3 mm 2 mps 664 mmHg 82%
    20:00 +23°C° 0.3 mm 1 mps 664 mmHg 85%
    21:00 +23°C° 0.3 mm 1 mps 664 mmHg 86%
    22:00 +21°C° 0.3 mm 2 mps 664 mmHg 86%
    23:00 +21°C° 0.3 mm 2 mps 664 mmHg 87%

    26 October, Thursday

    Time Temperature Precipitation Wind Pressure Humidity
    00:00 +21°C° 0.2 mm 2 mps 663 mmHg 87%
    01:00 +20°C° 0.2 mm 2 mps 663 mmHg 87%
    02:00 +20°C° 0.2 mm 2 mps 662 mmHg 87%
    03:00 +20°C° 0.1 mm 2 mps 663 mmHg 87%
    04:00 +20°C° 0.1 mm 2 mps 663 mmHg 87%
    05:00 +20°C° 0.1 mm 2 mps 664 mmHg 87%
    06:00 +23°C° 0 mm 2 mps 664 mmHg 80%
    07:00 +24°C° 0 mm 2 mps 665 mmHg 74%
    08:00 +26°C° 0 mm 2 mps 666 mmHg 67%
    09:00 +28°C° 0.4 mm 2 mps 666 mmHg 62%
    10:00 +29°C° 0.4 mm 2 mps 666 mmHg 57%
    11:00 +30°C° 0.4 mm 2 mps 666 mmHg 52%
    12:00 +30°C° 0.6 mm 2 mps 665 mmHg 54%
    13:00 +30°C° 0.6 mm 2 mps 664 mmHg 56%
    14:00 +30°C° 0.6 mm 2 mps 663 mmHg 58%
    15:00 +29°C° 0.3 mm 2 mps 663 mmHg 62%
    16:00 +27°C° 0.3 mm 2 mps 663 mmHg 66%
    17:00 +26°C° 0.3 mm 2 mps 663 mmHg 70%
    18:00 +25°C° 0.2 mm 2 mps 664 mmHg 72%
    19:00 +24°C° 0.2 mm 2 mps 664 mmHg 74%
    20:00 +23°C° 0.2 mm 2 mps 664 mmHg 76%
    21:00 +21°C° 0 mm 2 mps 664 mmHg 76%
    22:00 +21°C° 0 mm 2 mps 663 mmHg 76%
    23:00 +20°C° 0 mm 2 mps 663 mmHg 75%

    27 October, Friday

    Time Temperature Precipitation Wind Pressure Humidity
    00:00 +20°C° 0 mm 2 mps 663 mmHg 76%
    01:00 +20°C° 0 mm 2 mps 662 mmHg 77%
    02:00 +21°C° 0 mm 1 mps 662 mmHg 78%
    03:00 +20°C° 0 mm 1 mps 662 mmHg 78%
    04:00 +20°C° 0 mm 1 mps 663 mmHg 79%
    05:00 +20°C° 0 mm 1 mps 663 mmHg 80%
    06:00 +22°C° 0 mm 1 mps 664 mmHg 74%
    07:00 +24°C° 0 mm 1 mps 664 mmHg 68%
    08:00 +27°C° 0 mm 1 mps 665 mmHg 61%
    09:00 +28°C° 0 mm 1 mps 665 mmHg 56%
    10:00 +30°C° 0 mm 1 mps 664 mmHg 51%
    11:00 +32°C° 0 mm 2 mps 664 mmHg 46%
    12:00 +31°C° 0.1 mm 2 mps 663 mmHg 49%
    13:00 +31°C° 0.1 mm 2 mps 663 mmHg 52%
    14:00 +30°C° 0.1 mm 2 mps 662 mmHg 54%
    15:00 +29°C° 0.8 mm 2 mps 662 mmHg 61%
    16:00 +27°C° 0.8 mm 2 mps 662 mmHg 68%
    17:00 +26°C° 0.8 mm 2 mps 662 mmHg 75%
    18:00 +25°C° 0.9 mm 1 mps 662 mmHg 78%
    19:00 +24°C° 0.9 mm 1 mps 663 mmHg 82%
    20:00 +23°C° 0.9 mm 1 mps 663 mmHg 85%
    21:00 +23°C° 0.4 mm 1 mps 663 mmHg 86%
    22:00 +22°C° 0.4 mm 1 mps 663 mmHg 87%
    23:00 +21°C° 0.4 mm 2 mps 663 mmHg 88%
    Show more